SCP
-0 -0 -0 -0 -0 -0 0 0 0 0 -0 -0 -0 -0 -0 -0 -0 -0 -0 -0 -0 -0 -0 -0 -0 -0 -0 -0 -0 0 0 0 0 0 0 0 0 0 0 0 -0 -0 0
-0 -0 -0 -0 -0 -0 -0 -0 -0 -0 -0 -0 -0 -0 -0 -0 0 0 0 0 0 0 0 0 0 0 0 0 0 0 0 0 0 0 0 0 -0 0 0 0 0 0 0
-0 -0 -0 -0 -0 -0 -0 -0 -0 0 0 0 0 0 0 0 0 0 0 0 0 0 0 0 0 0 0 0 0 0 0 0 0 0 0 0 0 0 0 0 0 0 0
-0 -0 -0 -0 0 0 0 0 0 0 0 0 0 0 0 0 0 0 0 0 0 0 0 0 0 0 0 0 0 0 0 0 0 -0 0 0 0 0 0 0 0 0 0
0 0 0 0 0 0 0 0 0 0 0 0 0 0 0 0 0 0 0 0 0 0 0 0 0 0 0 0 0 0 0 0 -0 -0 0 0 0 0 0 0 0 0 0
0 0 0 0 0 0 0 -0 -0 0 0 0 0 0 0 0 0 0 0 0 0 0 0 0 0 0 0 0 0 0 0 -0 -0 0 0 0 0 0 0 0 0 0 0
0 0 0 0 0 0 0 0 0 0 -0 -0 0 0 0 0 0 0 0 0 0 0 0 0 0 0 0 0 0 0 0 -0 -0 0 0 0 0 0 0 0 0 0 0
0 0 0 0 0 0 1 0 0 0 0 -0 -0 -0 0 0 0 0 0 0 0 0 0 0 0 0 0 0 0 0 0 -0 -0 0 0 0 0 0 0 0 0 0 0
0 0 0 0 0 0 1 1 1 1 0 0 0 -0 0 -0 0 0 0 0 0 0 0 0 0 0 0 0 0 0 0 -0 -0 0 0 0 0 0 0 0 0 0 0
0 0 0 0 0 0 1 1 1 1 1 0 0 0 -0 -0 0 0 0 0 0 0 0 0 0 0 0 0 0 0 -0 -0 0 0 0 0 0 0 0 0 0 0 0
0 0 0 0 0 0 0 1 0 0 1 0 0 0 1 -0 0 0 0 0 0 0 1 0 0 0 0 0 0 0 -0 0 0 0 0 0 0 0 0 0 0 0 0
0 0 0 0 0 0 1 1 1 0 -0 0 0 0 0 0 0 0 0 0 0 0 1 0 0 0 0 0 0 -0 0 0 0 0 0 0 0 0 0 0 0 0 0
0 1 1 1 1 1 1 0 0 0 0 0 0 -0 0 0 0 0 0 0 0 1 0 0 0 0 0 0 0 0 0 0 0 0 0 0 0 0 0 0 0 0 0
1 1 0 0 1 1 1 0 0 0 -0 0 0 0 0 0 0 0 0 0 0 1 0 0 0 0 0 0 0 0 0 0 0 0 0 0 -0 -0 0 0 0 0 0
0 0 0 0 1 1 1 0 -0 -0 -0 -0 0 0 0 0 0 0 0 0 0 0 0 0 0 0 0 0 0 0 0 0 0 0 0 -0 -0 -0 0 0 0 0 0
0 0 0 0 0 0 0 -0 -0 0 0 -0 0 0 0 1 0 0 0 0 0 0 0 0 0 0 0 0 0 0 0 0 0 0 0 0 -0 -0 -0 0 0 0 0
0 0 0 0 0 0 0 0 0 0 0 0 0 0 0 1 0 0 0 1 1 1 0 0 0 0 0 0 0 0 0 0 0 0 0 0 0 -0 -0 0 0 0 0
0 0 0 0 0 0 0 0 0 0 0 0 1 1 1 1 1 1 1 1 1 1 1 1 1 1 1 0 0 0 0 0 0 0 0 0 0 0 0 0 0 0 0
1 0 0 0 0 0 0 0 0 1 1 1 1 1 1 1 1 1 1 2 1 1 1 1 1 1 1 1 1 1 1 0 0 0 0 0 0 0 0 0 0 0 0
0 0 0 0 0 0 0 0 0 0 1 1 1 1 1 1 1 1 1 1 1 1 1 1 1 1 1 1 1 0 0 0 0 0 0 0 0 0 0 0 0 0 0
0 0 0 0 0 0 0 0 0 0 1 1 1 1 1 0 0 1 0 0 1 1 1 1 1 1 1 0 0 0 0 0 0 0 0 0 0 0 0 0 0 0 0
0 0 0 0 0 0 0 0 1 1 1 1 1 1 0 0 0 0 0 0 1 1 0 0 0 0 0 0 0 0 0 0 0 0 0 0 0 0 0 0 0 0 0
0 0 0 0 0 0 0 0 0 0 0 0 0 0 0 0 0 0 0 0 0 0 0 0 0 0 0 0 0 0 0 0 0 0 0 0 0 0 0 0 0 0 0
0 0 0 0 0 0 0 0 0 0 0 0 0 0 0 0 0 0 0 0 0 0 0 0 0 0 0 0 0 0 0 0 0 0 0 0 0 0 0 0 0 0 0
0 0 0 0 0 0 0 0 0 0 0 0 0 0 0 0 0 0 0 0 0 0 0 0 0 0 0 0 0 0 0 0 0 0 0 0 0 0 0 0 0 0 0
0 0 0 0 0 0 0 0 0 0 0 0 0 0 0 0 0 0 0 0 0 0 0 0 0 0 0 0 0 0 0 0 0 0 0 0 0 0 0 0 0 0 0
Wind_Speed_500mb
28 29 26 25 22 19 15 13 12 13 13 14 17 21 24 25 24 23 22 23 24 24 25 25 23 22 20 18 18 17 16 15 13 10 9 10 10 12 14 14 10 6 10
33 29 27 24 21 17 13 11 10 11 12 13 16 19 22 21 20 19 20 21 22 24 27 28 30 32 31 27 24 22 21 19 18 16 12 17 17 7 10 10 11 4 5
33 31 27 24 20 16 13 11 11 10 9 11 14 17 19 18 16 15 17 18 18 20 22 24 26 27 28 29 29 28 27 26 23 18 16 13 9 13 6 5 6 5 5
30 28 25 21 17 13 11 10 10 8 8 9 12 15 16 16 14 14 14 13 12 13 15 18 20 21 24 27 30 31 30 28 27 22 15 14 8 22 14 6 2 2 2
27 24 24 22 18 13 9 6 5 6 8 10 13 16 17 17 16 14 12 11 9 5 4 8 12 15 20 25 30 36 36 30 27 23 14 14 12 18 23 12 6 5 2
23 20 19 20 17 13 9 8 8 8 10 12 13 17 20 19 16 15 13 10 8 5 3 3 6 9 15 22 28 34 39 35 21 15 18 18 10 16 13 13 11 11 8
20 16 14 17 15 13 11 10 11 12 14 15 16 19 20 21 21 19 18 16 13 11 9 8 10 11 15 23 30 36 40 36 23 16 14 16 14 13 17 20 18 17 14
20 18 14 14 15 15 15 16 15 17 17 18 19 22 23 26 28 28 26 23 20 17 16 16 17 17 19 24 29 35 39 34 20 18 13 10 20 12 18 23 24 21 19
17 13 10 10 15 18 21 23 22 20 21 21 21 23 25 27 30 32 33 32 29 25 25 24 24 22 22 27 32 34 35 33 17 18 14 12 19 18 18 20 23 25 23
14 11 8 10 11 13 15 25 27 26 23 22 24 24 28 27 28 35 36 33 33 33 33 32 30 28 26 30 31 32 32 29 21 19 18 21 24 29 26 26 26 25 28
8 8 8 12 13 16 19 30 31 30 23 22 23 27 21 24 22 30 33 41 44 40 41 38 36 29 30 31 23 24 21 17 20 21 20 28 29 29 36 37 34 33 30
5 8 12 18 19 21 24 35 38 44 32 25 28 30 27 23 27 32 37 46 43 46 49 44 46 26 28 15 18 21 13 18 19 22 22 34 33 29 34 41 44 41 38
8 13 21 28 37 38 30 44 52 48 49 36 40 41 32 31 30 28 29 29 26 29 32 31 23 18 21 18 17 15 18 19 20 24 27 39 43 39 32 36 45 47 47
10 15 23 28 37 23 27 35 26 29 27 29 47 32 30 40 29 31 26 21 17 15 19 19 23 23 21 23 19 17 18 19 22 25 26 48 51 50 45 37 39 49 51
13 29 27 37 26 23 28 20 13 3 23 36 48 40 35 38 37 34 26 22 23 23 21 22 24 26 26 25 24 23 24 23 24 25 30 44 60 57 48 46 38 43 55
24 25 33 30 15 26 32 18 6 5 18 39 45 46 34 30 30 27 31 22 22 22 23 26 28 31 32 34 34 34 28 31 32 30 34 39 56 63 60 49 46 42 48
20 24 24 21 22 27 26 21 19 27 29 29 31 33 24 24 28 29 30 26 26 32 37 31 31 31 31 38 40 39 37 37 33 35 35 39 38 43 53 60 48 47 46
25 24 25 20 20 24 28 28 26 23 27 26 27 24 19 25 26 25 25 31 28 35 32 30 31 32 37 41 41 39 38 38 40 41 44 45 46 41 42 41 58 47 47
29 29 22 22 19 24 33 33 24 24 23 22 19 19 29 32 32 36 30 33 40 29 29 32 27 30 34 39 38 39 38 37 42 49 50 49 44 35 37 38 48 49 37
24 28 27 21 23 27 31 27 24 24 25 20 19 25 28 21 30 33 24 30 32 31 28 28 33 29 28 32 36 41 44 46 43 46 44 43 40 37 36 33 34 28 37
26 27 28 29 33 32 30 29 27 26 22 17 19 23 24 26 26 29 25 30 23 23 18 17 20 27 27 29 36 48 49 48 46 39 29 31 30 32 30 27 25 23 23
31 35 39 41 44 40 32 30 27 26 19 21 23 23 24 24 25 22 23 20 23 23 27 21 25 30 35 37 38 43 48 37 23 7 16 30 35 32 33 35 21 26 28
37 42 46 48 51 48 41 33 30 26 26 31 30 30 30 26 25 27 26 26 27 26 28 29 29 30 32 32 30 31 26 17 24 30 24 31 34 30 25 17 22 30 32
37 38 41 45 46 41 47 38 39 35 34 33 32 32 31 30 29 28 26 24 23 21 22 24 26 27 26 26 24 19 21 29 25 26 24 21 27 26 26 23 23 24 27
35 36 36 35 37 43 47 49 42 41 36 34 36 37 34 32 31 31 31 30 27 24 23 22 23 22 21 25 22 26 25 24 24 21 25 27 27 24 25 28 28 29 31
31 30 33 33 36 40 43 46 48 47 44 39 38 34 32 31 29 33 32 32 30 27 27 26 26 23 21 19 20 22 24 25 25 17 19 25 28 30 20 23 21 28 25
Wind_Direction_500mb
159 168 161 156 154 152 149 143 138 135 133 130 125 121 119 114 108 101 93 92 85 74 68 60 50 43 37 30 27 21 12 4 357 348 355 7 17 29 38 47 79 45 134
160 169 161 161 159 154 149 147 146 144 141 141 138 134 127 121 113 104 99 94 84 76 69 64 58 51 46 41 30 20 10 357 345 341 341 4 334 352 27 41 77 191 162
158 164 164 165 162 156 156 156 152 154 155 154 156 148 142 134 124 111 109 103 93 82 75 68 59 50 41 35 27 16 7 358 345 334 350 345 322 294 323 13 54 70 136
161 165 167 169 166 161 166 169 168 170 176 181 181 171 162 157 149 137 133 126 108 88 74 67 60 47 37 30 22 13 2 357 357 359 358 325 310 292 285 258 280 71 84
159 164 175 177 172 169 174 185 201 214 216 211 207 201 193 187 181 174 168 164 155 133 83 55 47 32 18 15 11 7 2 356 7 19 352 322 324 280 288 228 238 257 271
159 166 180 181 182 181 192 209 223 235 243 246 240 227 220 213 207 205 204 204 200 213 250 320 343 358 356 356 355 356 356 355 21 343 346 350 342 265 251 230 250 239 244
157 162 195 193 196 201 214 232 243 247 252 256 251 251 245 237 230 229 229 234 238 249 269 295 309 321 332 339 343 346 351 353 2 331 346 355 326 297 258 267 275 239 236
160 168 198 203 215 223 234 238 242 248 252 255 262 267 262 250 242 239 240 244 249 262 279 290 299 305 311 323 332 339 345 352 4 339 335 332 301 287 277 264 266 265 246
170 178 205 215 236 234 239 241 240 245 257 264 265 272 278 270 259 254 253 251 255 264 273 282 291 294 301 316 329 338 343 346 1 339 348 314 290 281 273 263 255 255 251
187 205 201 235 252 245 275 259 254 249 253 267 273 271 278 277 277 267 262 269 266 265 269 275 283 289 296 310 320 335 345 4 339 337 330 288 301 272 267 265 263 250 249
208 242 255 257 268 263 256 257 270 278 255 271 283 284 277 290 284 282 280 266 267 267 269 267 275 282 292 298 317 335 2 340 342 331 332 300 312 288 268 262 260 255 255
279 302 295 294 290 291 271 281 269 269 279 281 295 295 285 289 285 290 279 277 270 270 266 270 271 274 292 287 316 340 325 341 335 338 322 312 319 302 281 268 260 257 250
307 321 309 319 314 304 285 309 290 277 262 285 297 295 299 287 287 298 302 297 292 275 262 281 269 263 261 271 282 289 309 326 325 331 318 327 331 318 295 275 266 258 251
358 343 340 326 321 308 318 320 305 281 247 247 290 305 284 288 287 296 300 281 287 267 250 251 255 256 257 268 268 278 295 300 306 317 313 314 324 321 311 290 273 260 254
13 344 341 340 342 346 333 329 337 242 234 277 313 317 305 293 290 300 297 276 266 263 270 266 275 272 271 274 273 275 280 291 295 307 310 312 317 316 311 299 284 269 255
350 343 351 354 357 8 2 14 286 285 289 291 304 314 305 290 285 280 293 274 269 275 274 266 272 267 274 274 275 275 278 285 287 289 297 307 311 310 306 300 289 276 262
1 358 6 9 9 0 6 355 314 307 305 308 313 314 301 299 290 287 289 282 279 284 286 282 279 272 273 275 274 277 281 283 283 288 296 301 300 303 305 302 293 284 269
8 10 11 8 17 10 7 351 337 329 326 322 319 314 314 314 307 292 283 281 280 289 287 283 281 272 273 275 279 279 277 278 283 286 297 295 293 292 286 297 291 290 278
31 21 7 355 8 360 349 342 329 318 325 323 325 322 311 308 307 296 297 291 290 287 279 281 270 274 278 278 280 277 276 276 279 285 289 289 289 287 284 285 290 297 292
24 15 18 14 356 356 351 356 349 340 321 326 332 318 314 324 308 308 314 299 301 295 295 284 286 277 279 284 281 283 285 281 281 290 292 285 283 278 285 278 286 293 290
27 27 22 13 7 6 0 354 345 331 334 339 347 338 336 334 326 315 310 316 322 323 314 313 300 297 294 294 290 290 290 288 278 283 285 286 285 278 277 281 287 284 281
34 37 33 27 15 12 10 4 359 351 357 351 348 354 354 353 348 351 342 334 322 312 309 308 309 301 291 294 295 295 293 290 288 288 258 286 282 275 267 268 279 283 288
39 29 16 11 4 3 15 6 7 357 345 345 345 338 343 349 345 340 335 328 322 321 302 304 299 294 294 289 288 286 297 291 298 287 280 282 279 269 264 276 286 286 280
31 22 17 11 10 12 12 14 11 7 354 348 342 333 344 340 345 350 349 344 338 338 317 316 307 294 296 291 289 288 286 290 294 296 284 292 283 288 278 273 269 282 285
23 18 15 18 23 18 11 7 7 359 353 347 345 350 352 353 357 358 1 358 353 351 341 340 336 318 304 292 298 295 290 294 297 281 291 301 305 299 281 273 277 268 276
12 16 13 18 20 15 8 1 358 353 351 353 359 1 2 360 0 352 359 357 354 352 346 343 338 335 332 315 298 299 299 295 299 303 299 301 301 299 296 300 270 263 263
Wind_Speed_850mb
28 29 26 25 22 19 15 13 12 13 13 14 17 21 24 25 24 23 22 23 24 24 25 25 23 22 20 18 18 17 16 15 13 10 9 10 10 12 14 14 10 6 10
33 29 27 24 21 17 13 11 10 11 12 13 16 19 22 21 20 19 20 21 22 24 27 28 30 32 31 27 24 22 21 19 18 16 12 17 17 7 10 10 11 4 5
33 31 27 24 20 16 13 11 11 10 9 11 14 17 19 18 16 15 17 18 18 20 22 24 26 27 28 29 29 28 27 26 23 18 16 13 9 13 6 5 6 5 5
30 28 25 21 17 13 11 10 10 8 8 9 12 15 16 16 14 14 14 13 12 13 15 18 20 21 24 27 30 31 30 28 27 22 15 14 8 22 14 6 2 2 2
27 24 24 22 18 13 9 6 5 6 8 10 13 16 17 17 16 14 12 11 9 5 4 8 12 15 20 25 30 36 36 30 27 23 14 14 12 18 23 12 6 5 2
23 20 19 20 17 13 9 8 8 8 10 12 13 17 20 19 16 15 13 10 8 5 3 3 6 9 15 22 28 34 39 35 21 15 18 18 10 16 13 13 11 11 8
20 16 14 17 15 13 11 10 11 12 14 15 16 19 20 21 21 19 18 16 13 11 9 8 10 11 15 23 30 36 40 36 23 16 14 16 14 13 17 20 18 17 14
20 18 14 14 15 15 15 16 15 17 17 18 19 22 23 26 28 28 26 23 20 17 16 16 17 17 19 24 29 35 39 34 20 18 13 10 20 12 18 23 24 21 19
17 13 10 10 15 18 21 23 22 20 21 21 21 23 25 27 30 32 33 32 29 25 25 24 24 22 22 27 32 34 35 33 17 18 14 12 19 18 18 20 23 25 23
14 11 8 10 11 13 15 25 27 26 23 22 24 24 28 27 28 35 36 33 33 33 33 32 30 28 26 30 31 32 32 29 21 19 18 21 24 29 26 26 26 25 28
8 8 8 12 13 16 19 30 31 30 23 22 23 27 21 24 22 30 33 41 44 40 41 38 36 29 30 31 23 24 21 17 20 21 20 28 29 29 36 37 34 33 30
5 8 12 18 19 21 24 35 38 44 32 25 28 30 27 23 27 32 37 46 43 46 49 44 46 26 28 15 18 21 13 18 19 22 22 34 33 29 34 41 44 41 38
8 13 21 28 37 38 30 44 52 48 49 36 40 41 32 31 30 28 29 29 26 29 32 31 23 18 21 18 17 15 18 19 20 24 27 39 43 39 32 36 45 47 47
10 15 23 28 37 23 27 35 26 29 27 29 47 32 30 40 29 31 26 21 17 15 19 19 23 23 21 23 19 17 18 19 22 25 26 48 51 50 45 37 39 49 51
13 29 27 37 26 23 28 20 13 3 23 36 48 40 35 38 37 34 26 22 23 23 21 22 24 26 26 25 24 23 24 23 24 25 30 44 60 57 48 46 38 43 55
24 25 33 30 15 26 32 18 6 5 18 39 45 46 34 30 30 27 31 22 22 22 23 26 28 31 32 34 34 34 28 31 32 30 34 39 56 63 60 49 46 42 48
20 24 24 21 22 27 26 21 19 27 29 29 31 33 24 24 28 29 30 26 26 32 37 31 31 31 31 38 40 39 37 37 33 35 35 39 38 43 53 60 48 47 46
25 24 25 20 20 24 28 28 26 23 27 26 27 24 19 25 26 25 25 31 28 35 32 30 31 32 37 41 41 39 38 38 40 41 44 45 46 41 42 41 58 47 47
29 29 22 22 19 24 33 33 24 24 23 22 19 19 29 32 32 36 30 33 40 29 29 32 27 30 34 39 38 39 38 37 42 49 50 49 44 35 37 38 48 49 37
24 28 27 21 23 27 31 27 24 24 25 20 19 25 28 21 30 33 24 30 32 31 28 28 33 29 28 32 36 41 44 46 43 46 44 43 40 37 36 33 34 28 37
26 27 28 29 33 32 30 29 27 26 22 17 19 23 24 26 26 29 25 30 23 23 18 17 20 27 27 29 36 48 49 48 46 39 29 31 30 32 30 27 25 23 23
31 35 39 41 44 40 32 30 27 26 19 21 23 23 24 24 25 22 23 20 23 23 27 21 25 30 35 37 38 43 48 37 23 7 16 30 35 32 33 35 21 26 28
37 42 46 48 51 48 41 33 30 26 26 31 30 30 30 26 25 27 26 26 27 26 28 29 29 30 32 32 30 31 26 17 24 30 24 31 34 30 25 17 22 30 32
37 38 41 45 46 41 47 38 39 35 34 33 32 32 31 30 29 28 26 24 23 21 22 24 26 27 26 26 24 19 21 29 25 26 24 21 27 26 26 23 23 24 27
35 36 36 35 37 43 47 49 42 41 36 34 36 37 34 32 31 31 31 30 27 24 23 22 23 22 21 25 22 26 25 24 24 21 25 27 27 24 25 28 28 29 31
31 30 33 33 36 40 43 46 48 47 44 39 38 34 32 31 29 33 32 32 30 27 27 26 26 23 21 19 20 22 24 25 25 17 19 25 28 30 20 23 21 28 25
Wind_Direction_850mb
159 168 161 156 154 152 149 143 138 135 133 130 125 121 119 114 108 101 93 92 85 74 68 60 50 43 37 30 27 21 12 4 357 348 355 7 17 29 38 47 79 45 134
160 169 161 161 159 154 149 147 146 144 141 141 138 134 127 121 113 104 99 94 84 76 69 64 58 51 46 41 30 20 10 357 345 341 341 4 334 352 27 41 77 191 162
158 164 164 165 162 156 156 156 152 154 155 154 156 148 142 134 124 111 109 103 93 82 75 68 59 50 41 35 27 16 7 358 345 334 350 345 322 294 323 13 54 70 136
161 165 167 169 166 161 166 169 168 170 176 181 181 171 162 157 149 137 133 126 108 88 74 67 60 47 37 30 22 13 2 357 357 359 358 325 310 292 285 258 280 71 84
159 164 175 177 172 169 174 185 201 214 216 211 207 201 193 187 181 174 168 164 155 133 83 55 47 32 18 15 11 7 2 356 7 19 352 322 324 280 288 228 238 257 271
159 166 180 181 182 181 192 209 223 235 243 246 240 227 220 213 207 205 204 204 200 213 250 320 343 358 356 356 355 356 356 355 21 343 346 350 342 265 251 230 250 239 244
157 162 195 193 196 201 214 232 243 247 252 256 251 251 245 237 230 229 229 234 238 249 269 295 309 321 332 339 343 346 351 353 2 331 346 355 326 297 258 267 275 239 236
160 168 198 203 215 223 234 238 242 248 252 255 262 267 262 250 242 239 240 244 249 262 279 290 299 305 311 323 332 339 345 352 4 339 335 332 301 287 277 264 266 265 246
170 178 205 215 236 234 239 241 240 245 257 264 265 272 278 270 259 254 253 251 255 264 273 282 291 294 301 316 329 338 343 346 1 339 348 314 290 281 273 263 255 255 251
187 205 201 235 252 245 275 259 254 249 253 267 273 271 278 277 277 267 262 269 266 265 269 275 283 289 296 310 320 335 345 4 339 337 330 288 301 272 267 265 263 250 249
208 242 255 257 268 263 256 257 270 278 255 271 283 284 277 290 284 282 280 266 267 267 269 267 275 282 292 298 317 335 2 340 342 331 332 300 312 288 268 262 260 255 255
279 302 295 294 290 291 271 281 269 269 279 281 295 295 285 289 285 290 279 277 270 270 266 270 271 274 292 287 316 340 325 341 335 338 322 312 319 302 281 268 260 257 250
307 321 309 319 314 304 285 309 290 277 262 285 297 295 299 287 287 298 302 297 292 275 262 281 269 263 261 271 282 289 309 326 325 331 318 327 331 318 295 275 266 258 251
358 343 340 326 321 308 318 320 305 281 247 247 290 305 284 288 287 296 300 281 287 267 250 251 255 256 257 268 268 278 295 300 306 317 313 314 324 321 311 290 273 260 254
13 344 341 340 342 346 333 329 337 242 234 277 313 317 305 293 290 300 297 276 266 263 270 266 275 272 271 274 273 275 280 291 295 307 310 312 317 316 311 299 284 269 255
350 343 351 354 357 8 2 14 286 285 289 291 304 314 305 290 285 280 293 274 269 275 274 266 272 267 274 274 275 275 278 285 287 289 297 307 311 310 306 300 289 276 262
1 358 6 9 9 0 6 355 314 307 305 308 313 314 301 299 290 287 289 282 279 284 286 282 279 272 273 275 274 277 281 283 283 288 296 301 300 303 305 302 293 284 269
8 10 11 8 17 10 7 351 337 329 326 322 319 314 314 314 307 292 283 281 280 289 287 283 281 272 273 275 279 279 277 278 283 286 297 295 293 292 286 297 291 290 278
31 21 7 355 8 360 349 342 329 318 325 323 325 322 311 308 307 296 297 291 290 287 279 281 270 274 278 278 280 277 276 276 279 285 289 289 289 287 284 285 290 297 292
24 15 18 14 356 356 351 356 349 340 321 326 332 318 314 324 308 308 314 299 301 295 295 284 286 277 279 284 281 283 285 281 281 290 292 285 283 278 285 278 286 293 290
27 27 22 13 7 6 0 354 345 331 334 339 347 338 336 334 326 315 310 316 322 323 314 313 300 297 294 294 290 290 290 288 278 283 285 286 285 278 277 281 287 284 281
34 37 33 27 15 12 10 4 359 351 357 351 348 354 354 353 348 351 342 334 322 312 309 308 309 301 291 294 295 295 293 290 288 288 258 286 282 275 267 268 279 283 288
39 29 16 11 4 3 15 6 7 357 345 345 345 338 343 349 345 340 335 328 322 321 302 304 299 294 294 289 288 286 297 291 298 287 280 282 279 269 264 276 286 286 280
31 22 17 11 10 12 12 14 11 7 354 348 342 333 344 340 345 350 349 344 338 338 317 316 307 294 296 291 289 288 286 290 294 296 284 292 283 288 278 273 269 282 285
23 18 15 18 23 18 11 7 7 359 353 347 345 350 352 353 357 358 1 358 353 351 341 340 336 318 304 292 298 295 290 294 297 281 291 301 305 299 281 273 277 268 276
12 16 13 18 20 15 8 1 358 353 351 353 359 1 2 360 0 352 359 357 354 352 346 343 338 335 332 315 298 299 299 295 299 303 299 301 301 299 296 300 270 263 263